timestamp,wind_dir_avg,wind_spd_avg,wind_spd_max_dir,wind_spd_gust,battery_voltage,lat,long
2021-01-21 00:04:01+00:00,273.0,8.44,285.0,9.52,12.49,47.59359,-54.27349
2021-01-21 00:14:01+00:00,274.0,10.7,275.0,12.06,12.49,47.59359,-54.27349
2021-01-21 00:24:01+00:00,273.0,7.57,277.0,8.92,12.49,47.59359,-54.27349
2021-01-21 00:34:01+00:00,265.0,8.63,270.0,10.19,12.49,47.59359,-54.27349
2021-01-21 00:44:01+00:00,256.0,9.35,255.0,10.93,12.49,47.59359,-54.27349
2021-01-21 00:54:01+00:00,252.0,9.89,247.0,10.59,12.49,47.59359,-54.27349
2021-01-21 01:04:01+00:00,247.0,10.36,238.0,11.73,12.49,47.59359,-54.27349
2021-01-21 01:14:01+00:00,251.0,10.48,251.0,12.57,12.49,47.59359,-54.27349
2021-01-21 01:24:01+00:00,248.0,8.05,239.0,9.1,12.49,47.59359,-54.27349
2021-01-21 01:34:01+00:00,244.0,9.49,248.0,11.33,12.49,47.59359,-54.27349
2021-01-21 01:44:01+00:00,247.0,10.93,249.0,12.37,12.49,47.59359,-54.27349
2021-01-21 01:54:01+00:00,248.0,11.18,250.0,12.58,12.49,47.59359,-54.27349
2021-01-21 02:04:01+00:00,243.0,11.96,244.0,13.77,12.49,47.59359,-54.27349
2021-01-21 02:14:01+00:00,254.0,11.56,258.0,13.67,12.49,47.59359,-54.27349
2021-01-21 02:24:01+00:00,249.0,11.93,241.0,13.64,12.49,47.59359,-54.27349
2021-01-21 02:34:01+00:00,254.0,13.57,251.0,15.51,12.49,47.59359,-54.27349
2021-01-21 02:44:01+00:00,247.0,11.76,241.0,13.69,12.49,47.59359,-54.27349
2021-01-21 02:54:01+00:00,250.0,13.89,254.0,15.73,12.49,47.59359,-54.27349
2021-01-21 03:04:01+00:00,248.0,14.61,247.0,16.8,12.49,47.59359,-54.27349
2021-01-21 03:14:01+00:00,259.0,11.78,259.0,14.19,12.41,47.59359,-54.27349
2021-01-21 03:24:01+00:00,265.0,11.7,269.0,12.86,12.41,47.59359,-54.27349
2021-01-21 03:34:01+00:00,263.0,12.07,264.0,14.05,12.41,47.59359,-54.27349
2021-01-21 03:44:01+00:00,260.0,10.11,261.0,13.25,12.41,47.59359,-54.27349
2021-01-21 03:54:01+00:00,269.0,8.32,274.0,10.16,12.41,47.59359,-54.27349
2021-01-21 04:04:01+00:00,255.0,8.57,268.0,9.98,12.41,47.59359,-54.27349
2021-01-21 04:14:01+00:00,253.0,8.47,267.0,10.03,12.41,47.59359,-54.27349
2021-01-21 04:24:01+00:00,240.0,8.5,251.0,11.12,12.41,47.59359,-54.27349
2021-01-21 04:34:01+00:00,248.0,9.82,244.0,10.97,12.41,47.59359,-54.27349
2021-01-21 04:44:01+00:00,247.0,9.35,249.0,11.14,12.41,47.59359,-54.27349
2021-01-21 04:54:01+00:00,241.0,10.7,240.0,12.94,12.41,47.59359,-54.27349
2021-01-21 05:04:01+00:00,243.0,11.15,246.0,13.26,12.41,47.59359,-54.27349
2021-01-21 05:14:01+00:00,237.0,10.83,234.0,12.71,12.41,47.59359,-54.27349
2021-01-21 05:24:01+00:00,248.0,11.72,250.0,13.54,12.41,47.59359,-54.27349
2021-01-21 05:34:01+00:00,233.0,7.85,229.0,9.57,12.41,47.59359,-54.27349
2021-01-21 05:44:01+00:00,255.0,9.7,259.0,11.06,12.41,47.59359,-54.27349
2021-01-21 05:54:01+00:00,250.0,9.22,257.0,11.24,12.41,47.59359,-54.27349
2021-01-21 06:04:01+00:00,252.0,8.78,251.0,9.7,12.41,47.59359,-54.27349
2021-01-21 06:14:01+00:00,255.0,9.27,253.0,10.46,12.41,47.59359,-54.27349
2021-01-21 06:24:01+00:00,256.0,9.4,256.0,10.62,12.41,47.59359,-54.27349
2021-01-21 06:34:01+00:00,258.0,8.45,262.0,9.43,12.41,47.59359,-54.27349
2021-01-21 06:44:01+00:00,278.0,6.6,273.0,8.37,12.41,47.59359,-54.27349
2021-01-21 06:54:01+00:00,251.0,8.89,254.0,10.64,12.41,47.59359,-54.27349
2021-01-21 07:04:01+00:00,265.0,6.56,255.0,9.74,12.41,47.59359,-54.27349
2021-01-21 07:14:01+00:00,271.0,8.0,273.0,9.55,12.41,47.59359,-54.27349
2021-01-21 07:24:01+00:00,263.0,5.08,272.0,6.4,12.41,47.59359,-54.27349
2021-01-21 07:34:01+00:00,257.0,5.7,268.0,6.7,12.41,47.59359,-54.27349
2021-01-21 07:44:01+00:00,287.0,5.76,291.0,6.82,12.41,47.59359,-54.27349
2021-01-21 07:54:01+00:00,257.0,6.85,260.0,9.57,12.41,47.59359,-54.27349
2021-01-21 08:04:01+00:00,248.0,6.33,253.0,7.93,12.41,47.59359,-54.27349
2021-01-21 08:14:01+00:00,271.0,5.71,267.0,6.49,12.33,47.59359,-54.27349
2021-01-21 08:24:01+00:00,270.0,4.51,270.0,5.95,12.33,47.59359,-54.27349
2021-01-21 08:34:01+00:00,239.0,6.2,246.0,7.29,12.33,47.59359,-54.27349
2021-01-21 08:44:01+00:00,249.0,4.72,245.0,6.53,12.33,47.59359,-54.27349
2021-01-21 08:54:01+00:00,253.0,5.68,252.0,5.97,12.33,47.59359,-54.27349
2021-01-21 09:04:01+00:00,235.0,4.66,237.0,5.51,12.33,47.59359,-54.27349
2021-01-21 09:14:01+00:00,254.0,2.07,256.0,2.93,12.33,47.59359,-54.27349
2021-01-21 09:24:01+00:00,227.0,2.85,226.0,3.44,12.33,47.59359,-54.27349
2021-01-21 09:34:01+00:00,258.0,2.07,248.0,2.91,12.33,47.59359,-54.27349
2021-01-21 09:44:01+00:00,236.0,2.56,229.0,4.5,12.33,47.59359,-54.27349
2021-01-21 09:54:01+00:00,241.0,1.7,230.0,2.27,12.33,47.59359,-54.27349
2021-01-21 10:04:01+00:00,197.0,3.45,190.0,4.03,12.33,47.59359,-54.27349
2021-01-21 10:14:01+00:00,245.0,2.32,242.0,2.82,12.33,47.59359,-54.27349
2021-01-21 10:24:01+00:00,235.0,2.72,233.0,3.4,12.33,47.59359,-54.27349
2021-01-21 10:34:01+00:00,214.0,1.33,205.0,1.89,12.33,47.59359,-54.27349
2021-01-21 10:44:01+00:00,249.0,1.93,246.0,2.52,12.33,47.59359,-54.27349
2021-01-21 10:54:01+00:00,319.0,1.24,323.0,2.25,12.33,47.59359,-54.27349
2021-01-21 11:04:01+00:00,358.0,1.7,350.0,2.15,12.33,47.59359,-54.27349
2021-01-21 11:14:01+00:00,15.0,1.96,10.0,2.28,12.33,47.59359,-54.27349
2021-01-21 11:24:01+00:00,89.0,1.33,67.0,2.37,12.33,47.59359,-54.27349
2021-01-21 11:34:01+00:00,180.0,0.03,322.0,0.22,12.33,47.59359,-54.27349
2021-01-21 11:44:01+00:00,87.0,1.89,93.0,2.47,12.33,47.59359,-54.27349
2021-01-21 11:54:01+00:00,57.0,2.62,58.0,3.24,12.33,47.59359,-54.27349
2021-01-21 12:04:01+00:00,67.0,2.92,60.0,3.41,12.33,47.59359,-54.27349
2021-01-21 12:14:01+00:00,82.0,2.59,71.0,3.48,12.33,47.59359,-54.27349
2021-01-21 12:24:01+00:00,69.0,2.59,62.0,3.46,12.33,47.59359,-54.27349
2021-01-21 12:34:01+00:00,89.0,2.96,84.0,3.87,12.33,47.59359,-54.27349
2021-01-21 12:44:01+00:00,63.0,3.54,56.0,4.3,12.33,47.59359,-54.27349
2021-01-21 12:54:01+00:00,70.0,4.44,67.0,5.12,12.33,47.59359,-54.27349
2021-01-21 13:04:01+00:00,55.0,4.86,49.0,5.51,12.33,47.59359,-54.27349
2021-01-21 13:14:01+00:00,69.0,4.28,69.0,4.97,12.41,47.59359,-54.27349
2021-01-21 13:24:01+00:00,62.0,4.1,58.0,5.1,12.41,47.59359,-54.27349
2021-01-21 13:34:01+00:00,86.0,3.52,73.0,4.87,12.41,47.59359,-54.27349
2021-01-21 13:44:01+00:00,75.0,3.65,70.0,4.31,12.41,47.59359,-54.27349
2021-01-21 13:54:01+00:00,74.0,3.61,70.0,5.39,12.41,47.59359,-54.27349
2021-01-21 14:04:01+00:00,76.0,4.38,62.0,6.08,12.41,47.59359,-54.27349
2021-01-21 14:14:01+00:00,72.0,4.42,75.0,5.77,12.57,47.59359,-54.27349
2021-01-21 14:24:01+00:00,73.0,4.03,62.0,6.05,12.57,47.59359,-54.27349
2021-01-21 14:34:01+00:00,77.0,4.31,88.0,5.81,12.57,47.59359,-54.27349
2021-01-21 14:44:01+00:00,75.0,4.39,82.0,5.68,12.57,47.59359,-54.27349
2021-01-21 14:54:01+00:00,67.0,5.51,72.0,6.34,12.57,47.59359,-54.27349
2021-01-21 15:04:01+00:00,56.0,5.14,61.0,6.37,12.57,47.59359,-54.27349
2021-01-21 15:14:01+00:00,50.0,6.87,55.0,7.7,12.57,47.59359,-54.27349
2021-01-21 15:24:01+00:00,57.0,6.46,61.0,8.09,12.57,47.59359,-54.27349
2021-01-21 15:34:01+00:00,49.0,7.44,53.0,8.8,12.57,47.59359,-54.27349
2021-01-21 15:44:01+00:00,43.0,6.79,42.0,7.98,12.57,47.59359,-54.27349
2021-01-21 15:54:01+00:00,32.0,9.16,32.0,10.37,12.57,47.59359,-54.27349
2021-01-21 16:04:01+00:00,37.0,9.54,45.0,10.95,12.57,47.59359,-54.27349
2021-01-21 16:14:01+00:00,36.0,9.41,37.0,10.6,12.57,47.59359,-54.27349
2021-01-21 16:24:01+00:00,32.0,9.87,39.0,11.63,12.57,47.59359,-54.27349
2021-01-21 16:34:01+00:00,33.0,9.4,40.0,11.06,12.57,47.59359,-54.27349
2021-01-21 16:44:01+00:00,42.0,10.05,43.0,12.15,12.57,47.59359,-54.27349
2021-01-21 16:54:01+00:00,41.0,9.91,49.0,11.06,12.57,47.59359,-54.27349
2021-01-21 17:04:01+00:00,44.0,10.98,47.0,12.26,12.57,47.59359,-54.27349
2021-01-21 17:14:01+00:00,40.0,11.77,41.0,13.17,12.57,47.59359,-54.27349
2021-01-21 17:24:01+00:00,27.0,11.22,24.0,12.59,12.57,47.59359,-54.27349
2021-01-21 17:34:01+00:00,35.0,11.73,38.0,13.21,12.57,47.59359,-54.27349
2021-01-21 17:44:01+00:00,33.0,10.98,38.0,12.73,12.57,47.59359,-54.27349
2021-01-21 17:54:01+00:00,28.0,11.54,27.0,13.04,12.57,47.59359,-54.27349
2021-01-21 18:04:01+00:00,24.0,11.86,27.0,13.55,12.57,47.59359,-54.27349
2021-01-21 18:14:01+00:00,24.0,12.92,28.0,14.0,12.41,47.59359,-54.27349
2021-01-21 18:24:01+00:00,21.0,11.74,19.0,13.58,12.41,47.59359,-54.27349
2021-01-21 18:34:01+00:00,23.0,12.11,20.0,14.34,12.41,47.59359,-54.27349
2021-01-21 18:44:01+00:00,22.0,12.26,22.0,13.99,12.41,47.59359,-54.27349
2021-01-21 18:54:01+00:00,23.0,12.55,25.0,13.89,12.41,47.59359,-54.27349
2021-01-21 19:04:01+00:00,25.0,12.97,19.0,14.69,12.41,47.59359,-54.27349
2021-01-21 19:14:01+00:00,19.0,12.07,22.0,14.01,12.33,47.59359,-54.27349
2021-01-21 19:24:01+00:00,23.0,13.06,24.0,15.58,12.33,47.59359,-54.27349
2021-01-21 19:34:01+00:00,22.0,13.27,18.0,15.14,12.33,47.59359,-54.27349
2021-01-21 19:44:01+00:00,24.0,13.15,24.0,15.8,12.33,47.59359,-54.27349
2021-01-21 19:54:01+00:00,20.0,13.52,15.0,15.4,12.33,47.59359,-54.27349
2021-01-21 20:04:01+00:00,20.0,13.55,16.0,15.23,12.33,47.59359,-54.27349
2021-01-21 20:14:01+00:00,21.0,13.95,14.0,16.8,12.33,47.59359,-54.27349
2021-01-21 20:24:01+00:00,24.0,15.45,31.0,18.33,12.33,47.59359,-54.27349
2021-01-21 20:34:01+00:00,18.0,15.31,26.0,16.67,12.33,47.59359,-54.27349
2021-01-21 20:44:01+00:00,20.0,13.7,21.0,16.47,12.33,47.59359,-54.27349
2021-01-21 20:54:01+00:00,17.0,14.29,17.0,16.32,12.33,47.59359,-54.27349
2021-01-21 21:04:01+00:00,21.0,13.65,29.0,16.25,12.33,47.59359,-54.27349
2021-01-21 21:14:01+00:00,20.0,14.34,12.0,16.59,12.33,47.59359,-54.27349
2021-01-21 21:24:01+00:00,18.0,13.47,16.0,15.66,12.33,47.59359,-54.27349
2021-01-21 21:34:01+00:00,18.0,13.96,29.0,16.33,12.33,47.59359,-54.27349
2021-01-21 21:44:01+00:00,16.0,13.25,13.0,15.74,12.33,47.59359,-54.27349
2021-01-21 21:54:01+00:00,18.0,13.6,14.0,15.59,12.33,47.59359,-54.27349
2021-01-21 22:04:01+00:00,19.0,13.66,29.0,17.47,12.33,47.59359,-54.27349
2021-01-21 22:14:01+00:00,16.0,13.11,15.0,16.16,12.25,47.59359,-54.27349
2021-01-21 22:24:01+00:00,15.0,12.41,17.0,14.95,12.25,47.59359,-54.27349
2021-01-21 22:34:01+00:00,15.0,13.17,19.0,15.3,12.25,47.59359,-54.27349
2021-01-21 22:44:01+00:00,18.0,13.05,17.0,15.58,12.25,47.59359,-54.27349
2021-01-21 22:54:01+00:00,10.0,12.21,6.0,15.04,12.25,47.59359,-54.27349
2021-01-21 23:04:01+00:00,8.0,11.5,8.0,13.72,12.25,47.59359,-54.27349
2021-01-21 23:14:01+00:00,4.0,13.36,3.0,15.39,12.25,47.59359,-54.27349
2021-01-21 23:24:01+00:00,7.0,11.88,0.0,14.13,12.25,47.59359,-54.27349
2021-01-21 23:34:01+00:00,4.0,12.58,347.0,15.23,12.25,47.59359,-54.27349
2021-01-21 23:44:01+00:00,5.0,12.05,5.0,14.35,12.25,47.59359,-54.27349
2021-01-21 23:54:01+00:00,4.0,12.15,355.0,14.5,12.25,47.59359,-54.27349
